JEF5G EFHK-EETN

Flight info

Callsign JEF5G
Flight time 0h 24m
Altitude 11000
Route RENKU
Aircraft C25C/M-SDE2E3FGHRWXY/LB1

Departure

Time 2026-04-24 15:38
Airport Helsinki Vantaa Airport (EFHK)

Arrival

Time 2026-04-24 16:03
Airport Lennart Meri Tallinn Airport (EETN)
Time Latitude Longitude Altitude Speed Heading
2026-04-24 15:17 60.30860 24.98091 177 ft 0 kts 244°
2026-04-24 15:36 60.30876 24.98083 177 ft 3 kts 87°
2026-04-24 15:36 60.30867 24.98185 178 ft 9 kts 85°
2026-04-24 15:37 60.30832 24.98329 180 ft 17 kts 143°
2026-04-24 15:37 60.30719 24.98433 182 ft 19 kts 156°
2026-04-24 15:37 60.30668 24.98615 189 ft 14 kts 79°
2026-04-24 15:37 60.30711 24.98758 187 ft 10 kts 28°
2026-04-24 15:38 60.30820 24.98711 185 ft 27 kts 332°
2026-04-24 15:38 60.31257 24.98265 179 ft 121 kts 332°
2026-04-24 15:38 60.32253 24.97267 588 ft 185 kts 333°
2026-04-24 15:38 60.33268 24.96200 2709 ft 146 kts 330°
2026-04-24 15:39 60.34392 24.94938 3248 ft 226 kts 332°
2026-04-24 15:39 60.35829 24.93512 3895 ft 229 kts 334°
2026-04-24 15:39 60.37378 24.92233 3407 ft 259 kts 337°
2026-04-24 15:39 60.38966 24.90291 3316 ft 220 kts 314°
2026-04-24 15:40 60.39691 24.87504 2662 ft 241 kts 281°
2026-04-24 15:40 60.39481 24.84260 2796 ft 229 kts 254°
2026-04-24 15:40 60.38907 24.81312 2800 ft 222 kts 254°
2026-04-24 15:40 60.38414 24.78392 2761 ft 218 kts 251°
2026-04-24 15:41 60.37338 24.76218 2752 ft 226 kts 212°
2026-04-24 15:41 60.36413 24.75254 2744 ft 224 kts 212°
2026-04-24 15:41 60.34733 24.73549 3640 ft 173 kts 209°
2026-04-24 15:41 60.34069 24.72947 4123 ft 148 kts 211°
2026-04-24 15:42 60.33075 24.72057 4118 ft 168 kts 210°
2026-04-24 15:42 60.31902 24.70908 4388 ft 202 kts 210°
2026-04-24 15:42 60.30564 24.69604 4857 ft 219 kts 208°
2026-04-24 15:42 60.29186 24.68294 5676 ft 218 kts 215°
2026-04-24 15:43 60.27988 24.66432 6434 ft 220 kts 221°
2026-04-24 15:43 60.26606 24.64984 7108 ft 229 kts 203°
2026-04-24 15:43 60.25010 24.64189 7588 ft 248 kts 194°
2026-04-24 15:43 60.23215 24.63624 7720 ft 275 kts 192°
2026-04-24 15:44 60.21248 24.62935 7744 ft 298 kts 194°
2026-04-24 15:44 60.19159 24.62125 7748 ft 306 kts 194°
2026-04-24 15:44 60.17139 24.61363 7763 ft 285 kts 194°
2026-04-24 15:44 60.15244 24.60625 7774 ft 270 kts 194°
2026-04-24 15:45 60.13435 24.59941 7767 ft 259 kts 194°
2026-04-24 15:45 60.11694 24.59263 7768 ft 251 kts 195°
2026-04-24 15:45 60.10021 24.58634 7777 ft 245 kts 195°
2026-04-24 15:45 60.08368 24.58008 7769 ft 240 kts 193°
2026-04-24 15:46 60.06727 24.58432 7750 ft 243 kts 156°
2026-04-24 15:46 60.05339 24.60299 7742 ft 240 kts 139°
2026-04-24 15:46 60.04096 24.62488 7744 ft 237 kts 136°
2026-04-24 15:46 60.02887 24.64707 7734 ft 235 kts 137°
2026-04-24 15:47 60.01664 24.66861 7718 ft 233 kts 137°
2026-04-24 15:47 60.00444 24.68994 7701 ft 232 kts 138°
2026-04-24 15:47 59.99231 24.71112 7681 ft 231 kts 137°
2026-04-24 15:47 59.98021 24.73224 7660 ft 231 kts 138°
2026-04-24 15:48 59.96817 24.75338 7639 ft 230 kts 137°
2026-04-24 15:48 59.95610 24.77435 7617 ft 230 kts 137°
2026-04-24 15:48 59.94410 24.79540 7589 ft 230 kts 138°
2026-04-24 15:48 59.93206 24.81628 7567 ft 229 kts 137°
2026-04-24 15:49 59.92007 24.83722 7541 ft 229 kts 138°
2026-04-24 15:49 59.90806 24.85807 7517 ft 229 kts 137°
2026-04-24 15:49 59.89606 24.87889 7493 ft 229 kts 138°
2026-04-24 15:49 59.88244 24.89451 7431 ft 229 kts 171°
2026-04-24 15:50 59.86671 24.89445 7406 ft 226 kts 186°
2026-04-24 15:50 59.85104 24.89297 7370 ft 225 kts 188°
2026-04-24 15:50 59.83545 24.89045 7351 ft 225 kts 187°
2026-04-24 15:50 59.81988 24.88846 7332 ft 224 kts 187°
2026-04-24 15:51 59.80446 24.88805 7294 ft 227 kts 172°
2026-04-24 15:51 59.79007 24.90138 7247 ft 230 kts 150°
2026-04-24 15:51 59.77616 24.91693 7226 ft 229 kts 150°
2026-04-24 15:51 59.76251 24.93327 7205 ft 229 kts 149°
2026-04-24 15:52 59.74878 24.94929 7180 ft 229 kts 150°
2026-04-24 15:52 59.73507 24.96528 7177 ft 228 kts 150°
2026-04-24 15:52 59.72139 24.98105 7178 ft 227 kts 150°
2026-04-24 15:52 59.70777 24.99684 7177 ft 227 kts 150°
2026-04-24 15:53 59.69420 25.01257 7172 ft 226 kts 149°
2026-04-24 15:53 59.68060 25.02824 7171 ft 226 kts 150°
2026-04-24 15:53 59.66709 25.04395 7170 ft 225 kts 150°
2026-04-24 15:53 59.65352 25.05949 7121 ft 227 kts 150°
2026-04-24 15:54 59.63951 25.07575 6648 ft 235 kts 150°
2026-04-24 15:54 59.62535 25.09197 6185 ft 235 kts 150°
2026-04-24 15:54 59.61135 25.10817 5741 ft 232 kts 150°
2026-04-24 15:54 59.59746 25.12408 5297 ft 230 kts 150°
2026-04-24 15:55 59.58376 25.13984 4902 ft 226 kts 150°
2026-04-24 15:55 59.57026 25.15534 4513 ft 223 kts 149°
2026-04-24 15:55 59.55687 25.17064 4088 ft 222 kts 150°
2026-04-24 15:55 59.54320 25.18638 3813 ft 232 kts 149°
2026-04-24 15:56 59.52820 25.20340 3643 ft 265 kts 150°
2026-04-24 15:56 59.51171 25.22235 3484 ft 274 kts 149°
2026-04-24 15:56 59.49481 25.23960 3298 ft 274 kts 163°
2026-04-24 15:56 59.47605 25.24106 3119 ft 269 kts 186°
2026-04-24 15:57 59.45756 25.24113 2935 ft 263 kts 179°
2026-04-24 15:57 59.44021 25.24112 2809 ft 235 kts 185°
2026-04-24 15:57 59.42500 25.23518 2619 ft 213 kts 211°
2026-04-24 15:57 59.41502 25.21594 2433 ft 195 kts 242°
2026-04-24 15:58 59.41244 25.19141 2248 ft 181 kts 277°
2026-04-24 15:58 59.41250 25.16731 2202 ft 172 kts 272°
2026-04-24 15:58 59.41264 25.14442 2175 ft 164 kts 275°
2026-04-24 15:58 59.41272 25.12320 2148 ft 146 kts 275°
2026-04-24 15:59 59.41273 25.10435 2148 ft 132 kts 276°
2026-04-24 15:59 59.41270 25.08724 2148 ft 123 kts 277°
2026-04-24 15:59 59.41290 25.07096 2128 ft 118 kts 277°
2026-04-24 15:59 59.41304 25.05418 1947 ft 124 kts 277°
2026-04-24 16:00 59.41288 25.03746 1861 ft 125 kts 272°
2026-04-24 16:00 59.41245 25.01896 1823 ft 144 kts 275°
2026-04-24 16:00 59.41256 24.99936 1692 ft 143 kts 276°
2026-04-24 16:00 59.41269 24.97834 1684 ft 156 kts 274°
2026-04-24 16:01 59.41265 24.95787 1595 ft 148 kts 275°
2026-04-24 16:01 59.41294 24.93753 1369 ft 151 kts 272°
2026-04-24 16:01 59.41277 24.91804 995 ft 135 kts 275°
2026-04-24 16:01 59.41299 24.90062 687 ft 124 kts 272°
2026-04-24 16:02 59.41305 24.88424 452 ft 115 kts 272°
2026-04-24 16:02 59.41307 24.86896 280 ft 110 kts 271°
2026-04-24 16:02 59.41316 24.85442 152 ft 103 kts 272°
2026-04-24 16:02 59.41331 24.84192 132 ft 78 kts 270°
2026-04-24 16:03 59.41337 24.83336 136 ft 48 kts 271°
2026-04-24 16:03 59.41328 24.82749 131 ft 37 kts 270°
2026-04-24 16:03 59.41329 24.82241 133 ft 36 kts 272°
2026-04-24 16:03 59.41341 24.81893 135 ft 19 kts 270°
2026-04-24 16:04 59.41337 24.81464 133 ft 37 kts 270°
2026-04-24 16:04 59.41408 24.81176 132 ft 15 kts 356°
2026-04-24 16:04 59.41514 24.81172 132 ft 0 kts 358°
2026-04-24 16:06 59.41746 24.81224 132 ft 19 kts 69°
2026-04-24 16:06 59.41749 24.81300 132 ft 2 kts 90°
2026-04-24 16:06 59.41796 24.81406 132 ft 0 kts